Location: Kerguer�zec
(48.4509°N, 4.7600°W)
Time: 23:38:12
(UTC+00:00)

RESURS DK-1 - Pass Details

Date: 09 April 2020
Orbit: 557 x 561 km, 69.9° (Epoch: 29 May)

Event Time Altitude Azimuth Distance (km) Brightness Sun altitude
Rises 22:21:08 0° 322° (NW) 2,760 7.2 -27.7°
Reaches altitude 10° 22:23:32 10° 311° (NW) 1,858 5.9 -28.0°
Enters shadow 22:26:13 27° 276° (W) 1,109 4.1 -28.2°
